Temperature
18 18 18 18 18 18 18 18 18 18 18 18 18 18 18 18 18 18 17 18 18 17 17 17 17 17 17 17 17 17 17 16 16 16 16 16 16 16 16 16 16 16 16
18 18 18 18 18 18 18 18 18 18 18 18 18 18 18 18 17 17 17 17 17 17 17 17 17 17 17 17 17 17 17 16 16 16 16 16 16 16 16 16 16 16 16
18 18 18 18 18 18 18 18 18 18 18 18 18 18 18 18 17 17 17 17 17 17 17 17 17 17 17 17 17 16 16 16 16 16 16 16 16 16 16 16 16 16 16
18 18 18 18 18 18 18 18 18 18 18 18 18 18 18 18 17 17 17 17 17 17 17 17 17 17 17 17 17 16 16 16 16 16 16 16 16 16 16 16 16 16 16
18 18 18 18 18 18 18 19 18 18 18 18 19 18 18 18 18 18 17 17 17 17 17 17 17 17 17 17 17 17 16 16 16 16 16 16 16 16 16 16 16 16 16
18 18 18 18 18 18 18 18 18 18 18 18 19 19 18 18 18 18 18 18 17 17 17 17 17 17 17 17 17 17 16 16 16 16 16 16 16 16 16 16 16 16 16
18 18 18 18 18 18 18 18 18 18 18 18 19 19 19 19 18 18 18 18 18 17 17 17 17 17 17 17 17 17 17 16 16 16 16 16 16 16 16 16 16 16 16
18 18 18 18 18 18 18 18 18 18 19 18 19 20 20 20 19 19 18 18 18 18 17 17 17 17 17 16 17 17 17 17 17 16 16 16 16 16 16 16 16 16 16
18 18 18 18 18 18 18 18 18 18 18 18 18 19 20 21 20 19 18 18 18 18 18 17 17 17 17 16 16 17 17 17 17 16 16 16 16 16 16 16 16 16 16
18 18 18 18 18 18 18 18 18 18 18 19 19 18 19 19 19 20 19 19 18 18 18 18 17 17 17 17 17 17 17 17 17 16 16 16 16 16 16 15 15 15 15
18 18 18 18 18 18 18 18 18 18 18 18 19 19 18 18 19 19 19 19 19 18 18 18 17 17 17 17 17 17 17 17 17 17 16 16 16 16 16 15 15 15 15
18 18 18 18 18 18 18 18 18 18 18 18 18 18 19 19 19 19 19 19 19 19 18 18 18 17 17 17 17 17 17 17 17 16 16 16 16 16 16 16 16 15 15
18 18 18 18 18 18 18 18 18 18 18 18 18 18 18 18 18 18 19 19 19 19 18 18 18 17 17 17 17 17 17 17 17 17 16 16 16 16 16 16 16 15 15
18 18 18 18 18 18 18 18 18 18 18 18 18 18 18 18 18 18 18 18 19 19 19 18 18 17 17 17 17 17 17 17 17 16 16 16 16 16 16 16 15 15 15
18 18 18 18 18 18 18 18 18 17 17 18 18 18 18 18 18 18 18 18 18 19 19 18 18 17 17 17 17 17 16 17 17 16 16 16 16 16 16 16 15 15 15
18 18 18 18 18 18 18 18 18 17 17 17 17 18 18 18 18 18 17 17 17 18 18 18 17 17 17 17 17 17 16 16 16 16 16 16 16 16 16 16 15 15 15
18 18 18 18 18 17 18 18 17 17 17 17 17 17 17 17 17 17 17 17 17 17 17 18 17 17 17 16 16 16 16 16 16 16 16 16 16 16 16 16 15 15 15
18 18 18 18 18 18 18 17 17 17 17 17 17 17 17 17 17 17 17 17 17 17 17 17 17 17 16 16 16 16 16 16 16 16 16 16 16 16 16 16 15 15 15
18 18 18 18 18 18 18 18 17 17 17 17 17 17 17 17 17 17 17 17 17 17 16 17 17 16 16 16 16 16 16 16 16 16 16 16 16 16 15 15 15 15 15
18 18 18 18 18 17 17 17 17 17 17 17 17 17 17 16 16 16 17 16 16 16 16 16 16 16 16 16 16 16 16 16 15 15 15 15 15 15 15 15 15 15 15
18 18 18 18 17 17 17 17 17 17 17 17 17 16 16 17 17 16 16 16 16 16 16 16 16 16 16 16 16 16 16 15 15 15 15 15 15 15 15 15 15 15 14
18 18 18 18 17 17 18 17 17 17 16 16 16 16 16 16 16 16 16 16 16 16 16 16 16 16 15 15 15 15 15 15 15 15 15 15 15 15 15 14 14 14 14
18 18 18 18 17 17 17 17 17 17 16 16 16 16 16 16 16 16 16 16 16 16 15 15 15 15 15 15 15 15 15 15 15 15 14 14 15 14 14 14 14 14 14
18 18 18 17 17 17 17 17 17 17 16 16 16 16 16 16 15 15 15 15 15 15 15 15 15 15 15 15 15 15 14 14 14 14 14 14 14 14 14 14 14 14 14
17 17 17 17 17 17 17 17 17 16 16 16 16 16 16 15 15 15 15 15 15 15 15 15 15 15 15 15 14 14 14 14 14 14 14 14 14 14 14 14 14 13 13
17 17 17 17 17 17 17 17 16 16 16 16 16 15 15 15 15 15 15 15 14 14 14 14 14 14 14 14 14 14 14 14 14 14 14 13 14 13 14 14 13 13 13
Wind_Speed
2 3 3 2 2 3 3 2 2 2 1 2 2 3 3 3 3 3 5 7 4 3 3 2 3 4 5 5 5 5 5 5 5 5 5 5 5 5 5 6 7 8 8
2 2 2 2 2 2 2 2 2 1 1 1 2 2 2 3 3 2 3 5 6 4 3 2 3 3 4 5 5 5 5 5 4 4 5 5 5 5 5 5 6 7 8
2 1 1 1 2 2 3 2 1 1 1 1 2 2 2 1 1 1 1 1 4 6 5 3 2 2 3 4 4 5 5 5 5 4 4 5 5 4 5 5 6 6 7
2 2 1 1 1 1 1 1 1 1 1 1 1 1 1 1 1 1 1 1 0 2 5 5 4 3 3 4 4 4 4 5 5 5 5 5 5 4 4 5 6 6 6
2 2 1 1 2 1 0 0 2 0 0 0 1 1 1 1 1 1 1 0 0 0 2 6 6 5 4 4 4 5 4 5 5 5 5 5 5 4 5 5 7 7 7
2 2 2 1 1 1 0 0 1 0 1 1 1 1 1 0 1 1 1 1 1 1 1 2 4 5 6 5 4 5 4 5 6 6 6 6 5 5 5 5 6 8 8
1 2 1 2 1 1 1 1 1 2 1 1 1 1 2 2 1 1 1 0 1 1 1 1 1 1 4 7 6 5 5 5 5 6 6 6 6 6 6 6 6 8 8
1 2 2 2 1 1 1 1 2 2 1 1 2 2 1 3 3 2 1 1 1 1 1 2 1 2 2 2 6 7 5 4 5 6 6 7 6 6 6 6 6 7 9
2 1 1 2 2 2 1 2 2 2 1 1 2 3 2 1 0 2 2 1 1 1 1 1 2 2 2 2 3 6 5 5 5 5 6 6 7 7 6 7 6 6 8
2 2 2 2 2 2 1 2 1 2 2 2 1 2 3 3 2 1 2 2 2 1 1 1 1 2 2 2 2 3 4 4 4 4 5 5 5 6 7 6 7 6 7
2 2 1 1 2 2 1 1 1 3 2 3 2 2 2 2 3 3 2 1 1 1 1 2 1 1 2 2 2 2 4 4 4 4 4 5 4 5 6 6 6 6 6
2 2 2 2 2 2 2 2 2 3 2 3 3 3 3 2 2 2 3 3 2 1 2 2 2 2 2 3 2 3 4 4 4 4 4 5 5 4 5 5 6 6 6
2 2 2 2 2 2 2 2 3 3 3 3 4 3 3 3 3 3 4 3 3 2 2 3 2 2 2 2 2 4 5 5 5 5 5 5 5 5 5 5 5 6 6
2 2 3 3 3 3 3 3 4 4 3 4 4 4 4 4 3 4 4 4 4 3 3 2 2 2 2 3 2 5 5 7 6 6 6 6 6 5 5 5 5 5 6
3 3 3 3 4 4 3 4 4 4 4 5 5 5 5 4 4 4 4 5 5 5 4 3 3 2 3 2 3 5 5 6 8 8 7 7 7 7 6 6 6 6 6
4 4 4 4 4 4 4 5 5 4 5 5 5 5 5 5 4 4 5 5 5 6 6 3 3 3 2 3 4 5 5 6 9 9 8 8 8 8 8 7 7 7 7
5 5 5 5 5 5 5 5 5 5 6 6 6 5 6 5 5 5 5 5 5 6 6 5 4 2 4 5 3 5 6 6 7 10 9 9 9 9 8 8 8 8 8
6 6 6 6 6 6 6 6 6 6 6 6 6 5 6 5 5 6 5 5 5 5 7 7 5 4 5 5 5 6 6 6 6 8 10 10 9 9 9 9 9 9 9
6 6 6 6 6 6 6 6 6 6 6 6 6 5 5 5 5 5 5 6 6 6 6 7 7 4 5 4 5 6 6 5 7 6 9 10 10 10 10 10 10 10 10
6 6 6 6 6 6 6 6 6 6 6 6 6 6 5 5 5 5 5 6 6 6 6 7 7 6 5 4 5 6 6 6 6 6 5 7 10 12 12 11 10 10 10
6 6 6 6 6 6 5 5 6 7 6 6 6 6 5 4 4 5 5 5 5 6 6 7 7 6 5 4 5 6 6 5 5 5 5 6 6 7 8 11 11 10 10
6 5 6 6 6 5 2 3 6 6 6 6 6 6 5 5 5 5 5 5 6 7 7 7 7 6 6 6 5 6 6 6 6 4 5 6 6 6 6 6 7 9 10
6 6 6 6 6 5 3 4 6 7 7 6 6 6 6 5 5 6 5 7 7 8 8 9 9 9 7 6 7 8 7 7 7 5 5 7 6 7 6 5 7 9 10
5 6 6 6 6 5 4 4 5 7 7 7 7 7 6 6 6 5 6 6 7 7 8 8 8 9 8 7 7 8 8 8 7 7 6 7 6 6 6 5 8 10 10
5 5 5 5 5 4 4 4 5 6 6 6 6 6 6 6 3 3 6 6 7 7 6 7 8 8 7 7 7 6 6 7 7 6 5 6 6 6 6 6 7 12 12
5 5 5 5 6 5 5 5 6 5 5 6 5 5 5 5 3 3 6 6 7 6 6 5 5 7 8 7 9 8 7 7 7 6 4 5 6 5 5 5 5 5 8
Wind_Direction
118 110 101 104 105 111 123 106 89 90 88 105 85 72 68 73 63 65 98 108 114 120 134 145 157 167 171 167 166 166 170 173 174 174 175 174 177 183 190 192 192 193 197
113 134 132 104 102 105 92 94 102 120 100 77 79 83 68 71 79 64 91 124 132 131 132 141 159 163 172 170 169 170 172 172 175 174 174 175 177 184 190 188 185 188 193
135 156 124 123 87 98 111 116 108 124 131 125 109 102 107 86 81 82 81 100 140 145 140 137 144 162 177 177 174 175 179 180 178 175 173 174 177 180 191 192 192 196 198
172 202 169 117 113 129 132 116 138 88 79 122 122 122 120 134 140 141 142 151 161 137 147 150 158 169 186 186 185 184 183 181 179 176 174 177 180 183 185 197 197 199 201
197 214 182 130 178 178 216 306 85 9 125 100 155 161 175 178 149 142 114 117 120 172 139 147 167 176 184 196 200 194 189 184 183 183 183 185 185 190 196 198 199 199 200
207 244 192 176 221 197 192 81 91 288 275 262 275 120 235 190 179 129 211 148 152 178 165 143 169 173 182 189 194 193 194 188 189 190 193 196 195 196 202 208 210 208 208
202 239 261 177 234 211 264 231 235 191 220 247 246 208 176 172 152 169 218 210 156 159 159 167 204 174 173 185 189 190 199 201 196 196 199 202 204 209 213 216 220 216 214
233 215 236 230 215 212 224 242 248 281 261 224 285 278 209 167 183 172 188 197 217 195 184 178 174 201 236 181 158 176 194 202 204 202 205 210 211 214 219 220 221 219 217
208 259 251 251 252 252 227 237 239 251 274 254 294 305 309 345 124 157 174 185 202 244 233 193 192 193 212 195 165 166 185 199 204 206 207 210 211 214 220 225 226 226 223
211 218 232 239 260 273 246 240 203 256 252 260 218 266 305 331 302 237 184 163 175 211 246 255 206 191 206 214 171 130 170 193 203 209 211 213 216 219 222 229 232 234 232
215 221 214 222 234 254 261 282 261 269 261 269 273 257 251 242 261 277 278 268 227 208 213 225 233 222 202 212 205 152 159 184 200 204 208 214 220 229 231 233 237 240 241
201 201 216 223 234 240 229 241 251 240 267 278 286 285 273 273 270 272 272 260 259 236 227 228 229 220 219 218 183 131 166 189 204 209 214 220 224 233 239 239 241 245 244
205 201 226 226 237 236 237 243 236 256 248 249 260 270 274 274 279 280 278 279 278 253 232 229 221 225 232 225 182 168 180 195 207 213 218 223 228 235 238 240 242 247 246
229 214 220 220 225 235 240 236 240 238 240 249 259 269 270 268 263 264 274 280 276 265 242 247 227 226 240 239 186 204 204 193 208 211 213 215 224 233 236 235 237 244 245
223 215 220 218 221 226 239 243 246 250 250 252 254 247 255 263 258 261 264 267 273 277 270 238 235 216 235 235 199 236 235 193 205 211 213 216 221 226 232 235 236 241 242
232 226 222 224 225 226 227 238 244 244 248 247 251 264 265 267 268 260 258 259 262 273 277 279 256 248 262 257 208 238 238 197 204 208 217 221 225 227 228 232 237 239 239
220 225 226 227 231 232 235 238 248 246 248 251 251 248 253 267 270 266 256 254 257 261 265 270 265 246 243 263 248 247 242 235 215 199 212 223 228 230 232 235 238 240 240
222 221 225 228 232 234 237 239 244 248 251 253 257 259 259 258 257 265 264 260 259 260 261 269 268 256 245 248 252 255 252 244 247 189 201 216 222 229 235 238 241 243 243
220 223 224 228 234 238 239 242 245 251 254 255 257 257 260 262 261 263 263 263 261 258 257 262 264 260 254 250 253 253 252 250 253 212 198 210 220 228 234 236 240 243 244
216 222 226 231 236 240 243 245 247 252 256 257 257 256 258 261 262 263 260 263 267 266 257 258 262 258 250 245 249 254 252 240 248 248 231 224 218 220 228 230 234 239 240
216 217 225 228 233 235 242 249 252 251 255 256 256 256 257 267 285 278 282 280 274 268 264 260 259 261 259 257 255 258 261 260 249 246 251 245 229 231 231 227 226 231 236
218 217 221 226 230 235 208 251 261 261 258 258 259 261 257 243 243 235 255 269 278 270 273 270 265 265 264 263 267 265 264 262 265 243 250 259 250 249 243 240 205 211 227
219 223 226 228 233 233 196 220 244 258 258 259 260 262 269 266 254 262 240 227 239 245 255 266 271 271 272 271 270 265 262 263 268 266 256 262 253 253 253 239 181 203 219
223 228 230 233 238 228 187 217 234 244 254 255 255 254 260 268 269 273 272 270 266 254 246 249 265 270 272 275 266 263 265 259 261 256 250 264 260 258 261 246 196 204 217
228 230 231 230 235 225 186 204 235 247 249 252 254 254 257 258 256 268 267 270 273 273 247 241 253 263 274 268 267 266 259 256 262 260 243 260 268 266 262 254 221 203 215
226 231 230 231 233 233 192 198 230 254 260 263 256 254 250 255 241 236 258 266 268 273 280 269 254 252 254 243 229 240 254 258 267 267 238 250 267 273 267 255 250 229 228
Height
1550 1551 1551 1551 1552 1552 1552 1552 1552 1552 1552 1552 1552 1551 1551 1550 1550 1549 1547 1545 1544 1544 1544 1545 1545 1545 1545 1546 1547 1547 1547 1548 1548 1549 1549 1550 1550 1551 1552 1553 1554 1555 1556
1551 1551 1552 1552 1552 1553 1553 1552 1552 1552 1552 1552 1552 1551 1551 1551 1550 1549 1549 1547 1546 1545 1545 1545 1545 1545 1546 1546 1547 1547 1547 1547 1548 1548 1548 1549 1549 1550 1551 1551 1552 1553 1554
1551 1552 1553 1553 1553 1553 1552 1552 1552 1553 1552 1552 1552 1552 1551 1551 1550 1550 1549 1549 1548 1546 1546 1545 1545 1545 1546 1546 1546 1547 1547 1547 1547 1547 1548 1548 1548 1549 1549 1550 1550 1551 1552
1551 1552 1553 1553 1552 1553 1553 1553 1553 1553 1553 1553 1553 1552 1552 1551 1550 1550 1550 1549 1549 1548 1547 1546 1545 1545 1545 1546 1546 1546 1546 1546 1546 1546 1547 1547 1547 1548 1548 1548 1549 1550 1550
1551 1552 1552 1552 1552 1553 1553 1553 1552 1553 1553 1553 1553 1552 1552 1551 1551 1550 1550 1549 1549 1548 1548 1546 1546 1545 1545 1545 1545 1545 1546 1546 1546 1546 1546 1546 1546 1547 1547 1547 1547 1548 1548
1551 1551 1552 1551 1552 1552 1552 1552 1551 1551 1552 1552 1553 1552 1551 1551 1551 1550 1550 1549 1549 1548 1548 1547 1546 1546 1545 1545 1545 1545 1545 1545 1545 1545 1545 1545 1545 1546 1546 1545 1545 1546 1546
1550 1550 1551 1551 1551 1552 1551 1552 1551 1552 1552 1551 1552 1552 1551 1551 1550 1550 1550 1549 1549 1549 1548 1547 1547 1546 1545 1544 1544 1545 1544 1544 1544 1544 1544 1544 1544 1544 1544 1544 1544 1543 1544
1549 1550 1549 1551 1551 1550 1550 1550 1550 1551 1552 1551 1551 1551 1550 1551 1550 1550 1549 1549 1549 1549 1548 1548 1546 1545 1545 1545 1544 1544 1544 1543 1543 1543 1543 1543 1543 1543 1542 1542 1541 1541 1541
1548 1548 1549 1549 1549 1550 1550 1549 1549 1550 1551 1551 1551 1551 1550 1549 1549 1550 1549 1548 1548 1548 1548 1547 1546 1545 1545 1545 1544 1543 1543 1543 1542 1542 1542 1541 1541 1541 1540 1540 1539 1539 1539
1547 1547 1548 1548 1548 1549 1548 1549 1549 1549 1549 1550 1550 1549 1550 1549 1549 1548 1549 1548 1547 1547 1547 1547 1546 1545 1544 1544 1543 1542 1541 1541 1541 1541 1540 1540 1539 1539 1538 1538 1537 1537 1536
1546 1546 1546 1547 1547 1547 1547 1547 1547 1548 1549 1549 1549 1549 1549 1548 1548 1548 1547 1548 1547 1547 1546 1545 1545 1545 1543 1543 1542 1541 1540 1540 1539 1539 1538 1538 1537 1537 1536 1536 1535 1535 1534
1545 1545 1545 1545 1546 1546 1546 1546 1546 1547 1547 1547 1547 1548 1547 1547 1547 1547 1546 1546 1545 1545 1545 1544 1543 1543 1542 1542 1540 1539 1538 1538 1537 1537 1536 1536 1535 1534 1534 1533 1533 1532 1532
1544 1544 1544 1544 1544 1545 1545 1545 1545 1545 1545 1545 1545 1545 1546 1545 1545 1545 1545 1544 1543 1543 1543 1542 1542 1541 1540 1540 1538 1537 1536 1536 1535 1534 1534 1533 1533 1532 1532 1531 1530 1530 1530
1543 1542 1542 1542 1543 1543 1544 1543 1544 1544 1543 1543 1544 1543 1543 1544 1543 1543 1543 1542 1542 1541 1541 1540 1540 1539 1538 1537 1536 1535 1534 1533 1533 1532 1531 1531 1530 1530 1529 1528 1528 1527 1527
1541 1541 1541 1541 1541 1541 1541 1542 1542 1542 1542 1542 1542 1541 1541 1541 1541 1540 1540 1540 1541 1539 1538 1538 1538 1536 1536 1535 1533 1533 1532 1531 1530 1530 1529 1528 1527 1527 1526 1526 1525 1524 1524
1538 1538 1539 1539 1539 1540 1539 1539 1540 1539 1539 1539 1539 1538 1538 1539 1539 1538 1538 1537 1537 1537 1535 1535 1535 1534 1533 1532 1531 1529 1529 1528 1527 1526 1526 1525 1524 1524 1523 1522 1522 1521 1521
1535 1536 1536 1537 1537 1538 1537 1537 1538 1537 1537 1537 1537 1536 1536 1535 1535 1535 1535 1534 1534 1534 1532 1532 1532 1530 1529 1528 1528 1527 1526 1525 1524 1523 1523 1522 1521 1520 1520 1519 1518 1518 1517
1532 1533 1533 1534 1534 1535 1535 1535 1534 1535 1535 1534 1534 1534 1533 1533 1532 1532 1531 1531 1530 1530 1529 1528 1528 1527 1525 1525 1524 1523 1524 1523 1522 1520 1519 1519 1518 1517 1516 1516 1515 1514 1514
1529 1530 1530 1531 1531 1532 1532 1532 1532 1532 1532 1531 1531 1531 1530 1530 1529 1529 1528 1527 1527 1527 1525 1525 1524 1523 1522 1521 1521 1520 1520 1518 1518 1517 1516 1515 1514 1514 1513 1512 1511 1511 1510
1526 1526 1527 1527 1528 1528 1528 1529 1529 1528 1528 1528 1528 1527 1527 1526 1525 1525 1524 1523 1523 1522 1522 1521 1520 1519 1518 1517 1517 1517 1516 1515 1514 1514 1513 1512 1511 1510 1509 1508 1508 1507 1506
1523 1523 1524 1524 1525 1525 1526 1526 1525 1525 1525 1524 1524 1523 1523 1522 1521 1521 1521 1520 1520 1519 1519 1517 1516 1516 1515 1513 1513 1512 1512 1511 1510 1510 1509 1508 1507 1506 1505 1504 1504 1503 1502
1520 1520 1520 1520 1521 1522 1522 1521 1521 1522 1521 1521 1520 1520 1519 1518 1517 1517 1516 1515 1515 1515 1515 1514 1513 1512 1510 1510 1509 1508 1508 1507 1507 1506 1505 1504 1504 1502 1502 1501 1500 1499 1498
1516 1517 1517 1517 1517 1517 1517 1517 1517 1517 1517 1517 1516 1515 1515 1515 1514 1513 1512 1511 1510 1509 1509 1509 1508 1507 1506 1505 1504 1504 1503 1503 1502 1502 1501 1500 1499 1498 1498 1497 1495 1494 1494
1513 1513 1513 1513 1513 1513 1513 1513 1513 1512 1512 1512 1512 1511 1510 1510 1510 1508 1508 1507 1506 1505 1504 1503 1503 1502 1501 1500 1499 1499 1498 1498 1497 1496 1496 1496 1495 1494 1494 1492 1491 1490 1489
1509 1510 1510 1510 1510 1509 1509 1509 1509 1509 1508 1508 1507 1507 1506 1505 1505 1504 1503 1502 1501 1501 1500 1499 1498 1497 1496 1495 1495 1495 1494 1494 1493 1493 1492 1492 1491 1490 1489 1488 1487 1486 1485
1506 1506 1506 1506 1506 1506 1505 1506 1505 1505 1505 1504 1503 1503 1502 1501 1501 1500 1499 1498 1497 1497 1496 1494 1493 1492 1491 1490 1490 1490 1489 1490 1489 1489 1488 1487 1487 1486 1485 1484 1483 1482 1481